Retour au catalogue

MINOTAUR 4 R/B

ActifVLEO
NORAD 45877·ROCKET BODY·🇺🇸 United States

Lancé Jul 15, 2020 depuis Wallops Flight Facility

Loading…

Prochains Passages (prochaines 24 heures)

TLE

FraisSource: Space-Track

Époque: Sep 14, 2026, 05:07 UTC

1 45877U 20046E   26257.21324291  .00001195  00000-0  97206-4 0  9993
2 45877  53.9782 198.5922 0005610 225.1879 134.8667 15.07174295262342

Suivez MINOTAUR 4 R/B en temps réel avec AllMySat

Download on the App Store